Greenbrier Valley Airport
KLWB : now visible

Aeroporto :











RITROVATECI SU...

 
LOGIN :

Iscrizione | Disclaimer

   EN    FR    IT 

 









Sommario :    VFR   VFR Marginale   IFR   IFR Intensivo   IFR Molto Intensivo
Visibilità : 
Base nubi : 
>= 8 km
>= 3000ft
5 / 8 km
1000 / 3000 ft
1500m / 5 km
500 / 1000 ft
800 / 1500m
200 / 500 ft
< 800m
< 200 ft
Simboli :   Temporali  Nebbia  Neve Forte  Precipitazioni Forti  Vento > 20 kt






- Altitudine del aeroporto : 2302 ft


KLWB - Greenbrier Valley

ULTIMO METAR :
  • 051651Z 32008KT 10SM BKN023 OVC036 03/M02 A2997

METARs OBSOLETI :
  • 051551Z 31008KT 10SM OVC027 03/M02 A2998
  • 051451Z 32008KT 10SM OVC028 03/M01 A2998

TAF KLWB
Valido dal 05 a 18 ore il 06 a 18 ore UTC


051731Z 0518/0618 30010KT P6SM BKN023
FM061300 29005KT P6SM SCT018
FM061500 29005KT P6SM FEW040
FIR KZDC / America del Nord



MetMap, La meteo Aeronautica in un colpo d'occhio ! - Copyright ORBIFLY Dicembre 2007 - Disclaimer

ORBIFLY MET'MAP TEAM :

Programmazione e sviluppo : Alexandra Zaïnal
Concezione : Baudouin d'Aumeries
Aiuto per la programmazione : Marc-Olivier Méhu
Supporto tecnico e logistico : Manuel Goepfert
Aiuto per la traduzione : Arnaldo La Scala

Contatto : metmap@orbifly.com




FONTI E CREDITI :

   NOAA       Earth
Advisory